Regional Weather Roundup
Issued by NWS State College, PA

Home | Current Version | Previous Version | Text Only | Print | Product List | Glossary On
Versions: 1 2 3 4 5 6 7 8 9 10 11 12 13 14 15 16 17 18 19 20 21 22 23 24 25 26 27 28 29 30 31 32 33 34 35 36 37 38 39 40 41 42 43 44 45 46 47 48 49 50
000
ASUS41 KCTP 190510
RWRCTP

REGIONAL WEATHER ROUNDUP
NATIONAL WEATHER SERVICE STATE COLLEGE PA
100 AM EDT FRI SEP 19 2014

Note: "fair" indicates few or no clouds below 12,000 feet with no
significant weather and/or obstructions to visibility.

* = STATION THAT DOES NOT REPORT PRECIPITATION /E.G. RAIN...SNOW...ETC/
    THUNDER OR FOG.

PAZ002>004-007>009-013>016-020>023-029>032-190600-
WESTERN PENNSYLVANIA

CITY           SKY/WX    TMP DP  RH WIND       PRES   REMARKS
ERIE           CLEAR     51  46  83 CALM      30.20R
MEADVILLE      CLEAR     47  44  90 NE3       30.20R
FRANKLIN*      CLEAR     46  43  87 N5        30.21R
NEW CASTLE     NOT AVBL
BEAVER COUNTY  NOT AVBL
BUTLER*        CLEAR     48  45  87 NE3       30.20S
PITTSBURGH INT PTCLDY    55  50  83 N3        30.18R
PITTSBURGH     CLEAR     54  48  80 N3        30.17R
INDIANA*       PTCLDY    50  48  93 CALM      30.22R
LATROBE        CLEAR     48  48 100 CALM      30.18S
WASHINGTON CO* CLEAR     46  45  93 CALM      30.18S
$$

PAZ004>006-010>012-017>019-024>028-033>037-041-042-045-046-049>053-190600-
CENTRAL PENNSYLVANIA

CITY           SKY/WX    TMP DP  RH WIND       PRES   REMARKS
BRADFORD       MOCLDY    47  44  90 CALM      30.20S
DUBOIS         MOCLDY    49  46  90 NE7       30.19R
CLEARFIELD     CLEAR     48  47  96 N5        30.19R
JOHNSTOWN      CLEAR     51  44  77 NE6       30.17R
ALTOONA        CLEAR     48  46  93 E5        30.17R
STATE COLLEGE  MOCLDY    53  49  88 NE8       30.18S
WILLIAMSPORT   PTCLDY    52  47  83 CALM      30.19R
SELINSGROVE    CLEAR     54  48  80 NE5       30.19R
FT INDIANTOWN  CLEAR     58  51  79 N6        30.15R
CAPITAL CITY   CLEAR     52  47  83 W3        30.15R
HARRISBURG     PTCLDY    56  50  80 N6        30.13R
YORK           CLEAR     45  44  97 CALM      30.13R
$$

PAZ038>040-043-044-047-048-054-055-060>062-067>071-190600-
EASTERN PENNSYLVANIA

CITY           SKY/WX    TMP DP  RH WIND       PRES   REMARKS
SCRANTON       CLOUDY    56  46  69 NW8       30.19R
MOUNT POCONO   CLEAR     50  45  83 VRB6      30.17R
ALLENTOWN      CLEAR     54  47  77 N6        30.15R
QUAKERTOWN*    CLEAR     57  50  77 N8        30.15R
READING        CLEAR     56  49  77 NW3       30.14R
LANCASTER      CLEAR     54  46  74 CALM      30.14R
COATESVILLE    CLEAR     57  48  72 N5        30.14R
POTTSTOWN      CLEAR     51  47  86 N3        30.14S
BLUE BELL      CLEAR     55  50  82 CALM      30.12R
DOYLESTOWN     CLEAR     56  49  77 N8        30.12R
WILLOW GROVE   NOT AVBL
NORTH PHILA    CLEAR     62  48  60 N8        30.13R
PHILADELPHIA   PTCLDY    61  53  75 NW7       30.11S
$$


USA.gov is the U.S. government's official web portal to all federal, state and local government web resources and services.